User: anonymous
Location: Lawrence Hall of Science
(37.8785°N, 122.2415°W)
Time: 14:44:25
(UTC-07:00)
Language:

ARGOS - Orbit

View from above orbital plane
View from above orbital plane
View from above satellite
View from above satellite

Ground track
Ground track

The orbit data is extracted from the following two-line orbital elements,

1 25634U 99008A   14261.22476451  .00000060  00000-0  49423-4 0  2569
2 25634 098.7519 327.6471 0009966 210.0641 218.8839 14.19170259806209
Epoch (UTC): 18 September 2014 05:23:39
Eccentricity: 0.0009966
inclination: 98.7519°
perigee height: 821 km
apogee height: 835 km
right ascension of ascending node: 327.6471°
argument of perigee: 210.0641°
revolutions per day: 14.19170259
mean anomaly at epoch: 218.8839°
orbit number at epoch: 80620

The dashed part of the orbit path shows where the satellite is in the earth's shadow,  

DLR